Time,TemperatureF,DewpointF,PressureIn,WindDirection,WindDirectionDegrees,WindSpeedMPH,WindSpeedGustMPH,Humidity,HourlyPrecipIn,Conditions,Clouds,dailyrainin,SoftwareType,DateUTC
2013-02-27 00:01:00,15.0,12.0,-100.00,ENE,75,0.0,1.0,87,0.00,,,-99.99,,2013-02-27 07:01:00,
2013-02-27 00:12:00,15.0,12.0,-100.00,ENE,78,1.0,1.0,88,0.00,,,-99.99,,2013-02-27 07:12:00,
2013-02-27 00:21:00,15.0,12.0,-100.00,ESE,103,2.0,3.0,88,0.00,,,-99.99,,2013-02-27 07:21:00,
2013-02-27 00:31:00,15.0,12.0,-100.00,ESE,103,2.0,3.0,88,0.00,,,-99.99,,2013-02-27 07:31:00,
2013-02-27 00:41:00,15.0,13.0,-100.00,East,96,1.0,2.0,90,0.00,,,-99.99,,2013-02-27 07:41:00,
2013-02-27 00:52:00,15.0,13.0,-100.00,East,93,2.0,5.0,89,0.00,,,-99.99,,2013-02-27 07:52:00,
2013-02-27 01:01:00,15.0,13.0,-100.00,East,93,2.0,5.0,89,0.00,,,-99.99,,2013-02-27 08:01:00,
2013-02-27 01:11:00,15.0,12.0,-100.00,East,92,2.0,3.0,89,0.00,,,-99.99,,2013-02-27 08:11:00,
2013-02-27 01:21:00,15.0,12.0,-100.00,East,92,2.0,3.0,89,0.00,,,-99.99,,2013-02-27 08:21:00,
2013-02-27 01:31:00,15.0,12.0,-100.00,East,92,2.0,3.0,89,0.00,,,-99.99,,2013-02-27 08:31:00,
2013-02-27 01:41:00,15.0,13.0,-100.00,East,95,1.0,2.0,90,0.00,,,-99.99,,2013-02-27 08:41:00,
2013-02-27 01:52:00,15.0,13.0,-100.00,East,97,2.0,2.0,90,0.00,,,-99.99,,2013-02-27 08:52:00,
2013-02-27 02:01:00,15.0,13.0,-100.00,East,97,2.0,2.0,90,0.00,,,-99.99,,2013-02-27 09:01:00,
2013-02-27 02:11:00,16.0,13.0,-100.00,ESE,114,1.0,2.0,90,0.00,,,-99.99,,2013-02-27 09:11:00,
2013-02-27 02:21:00,16.0,13.0,-100.00,NW,311,1.0,2.0,89,0.00,,,-99.99,,2013-02-27 09:21:00,
2013-02-27 02:31:00,16.0,13.0,-100.00,NW,311,1.0,2.0,89,0.00,,,-99.99,,2013-02-27 09:31:00,
2013-02-27 02:41:00,16.0,13.0,-100.00,NW,311,1.0,2.0,89,0.00,,,-99.99,,2013-02-27 09:41:00,
2013-02-27 02:52:00,16.0,13.0,-100.00,ENE,78,0.0,0.0,90,0.00,,,-99.99,,2013-02-27 09:52:00,
2013-02-27 03:01:00,16.0,13.0,-100.00,ENE,78,0.0,0.0,90,0.00,,,-99.99,,2013-02-27 10:01:00,
2013-02-27 03:12:00,13.0,11.0,-100.00,NNW,344,1.0,2.0,90,0.00,,,-99.99,,2013-02-27 10:12:00,
2013-02-27 03:21:00,13.0,11.0,-100.00,East,93,0.0,1.0,90,0.00,,,-99.99,,2013-02-27 10:21:00,
2013-02-27 03:31:00,13.0,11.0,-100.00,East,93,0.0,1.0,90,0.00,,,-99.99,,2013-02-27 10:31:00,
2013-02-27 03:42:00,13.0,11.0,-100.00,East,93,0.0,1.0,90,0.00,,,-99.99,,2013-02-27 10:42:00,
2013-02-27 03:52:00,13.0,11.0,-100.00,East,93,0.0,0.0,90,0.00,,,-99.99,,2013-02-27 10:52:00,
2013-02-27 04:01:00,13.0,11.0,-100.00,East,93,0.0,0.0,90,0.00,,,-99.99,,2013-02-27 11:01:00,
2013-02-27 04:12:00,13.0,11.0,-100.00,East,97,0.0,1.0,91,0.00,,,-99.99,,2013-02-27 11:12:00,
2013-02-27 04:22:00,14.0,11.0,-100.00,NNW,342,0.0,1.0,91,0.00,,,-99.99,,2013-02-27 11:22:00,
2013-02-27 04:31:00,14.0,11.0,-100.00,NNW,342,0.0,1.0,91,0.00,,,-99.99,,2013-02-27 11:31:00,
2013-02-27 04:41:00,13.0,11.0,-100.00,East,96,1.0,2.0,91,0.00,,,-99.99,,2013-02-27 11:41:00,
2013-02-27 04:52:00,13.0,11.0,-100.00,East,96,1.0,2.0,91,0.00,,,-99.99,,2013-02-27 11:52:00,
2013-02-27 05:01:00,13.0,11.0,-100.00,East,96,1.0,2.0,91,0.00,,,-99.99,,2013-02-27 12:01:00,
2013-02-27 05:12:00,13.0,11.0,-100.00,ESE,104,2.0,3.0,92,0.00,,,-99.99,,2013-02-27 12:12:00,
2013-02-27 05:22:00,14.0,12.0,-100.00,ESE,106,2.0,3.0,92,0.00,,,-99.99,,2013-02-27 12:22:00,
2013-02-27 05:32:00,14.0,12.0,-100.00,ESE,106,2.0,3.0,92,0.00,,,-99.99,,2013-02-27 12:32:00,
2013-02-27 05:42:00,13.0,11.0,-100.00,South,169,0.0,1.0,91,0.00,,,-99.99,,2013-02-27 12:42:00,
2013-02-27 05:52:00,13.0,12.0,-100.00,East,89,1.0,2.0,92,0.00,,,-99.99,,2013-02-27 12:52:00,
2013-02-27 06:02:00,13.0,12.0,-100.00,East,89,1.0,2.0,92,0.00,,,-99.99,,2013-02-27 13:02:00,
2013-02-27 06:11:00,13.0,12.0,-100.00,East,89,1.0,2.0,92,0.00,,,-99.99,,2013-02-27 13:11:00,
2013-02-27 06:21:00,14.0,12.0,-100.00,ENE,76,2.0,5.0,92,0.00,,,-99.99,,2013-02-27 13:21:00,
2013-02-27 06:31:00,14.0,12.0,-100.00,ENE,76,2.0,5.0,92,0.00,,,-99.99,,2013-02-27 13:31:00,
2013-02-27 06:42:00,14.0,11.0,-100.00,ESE,114,6.0,7.0,91,0.00,,,-99.99,,2013-02-27 13:42:00,
2013-02-27 06:52:00,14.0,11.0,-100.00,ESE,114,6.0,7.0,91,0.00,,,-99.99,,2013-02-27 13:52:00,
2013-02-27 07:01:00,14.0,11.0,-100.00,ESE,114,6.0,7.0,91,0.00,,,-99.99,,2013-02-27 14:01:00,
2013-02-27 07:11:00,11.0,8.0,-100.00,NW,315,3.0,4.0,89,0.00,,,-99.99,,2013-02-27 14:11:00,
2013-02-27 07:21:00,11.0,9.0,-100.00,SE,126,0.0,1.0,91,0.00,,,-99.99,,2013-02-27 14:21:00,
2013-02-27 07:31:00,11.0,9.0,-100.00,SE,126,0.0,1.0,91,0.00,,,-99.99,,2013-02-27 14:31:00,
2013-02-27 07:42:00,9.0,7.0,-100.00,WSW,251,0.0,2.0,90,0.00,,,-99.99,,2013-02-27 14:42:00,
2013-02-27 07:52:00,9.0,7.0,-100.00,NE,44,1.0,2.0,91,0.00,,,-99.99,,2013-02-27 14:52:00,
2013-02-27 08:01:00,9.0,7.0,-100.00,NE,44,1.0,2.0,91,0.00,,,-99.99,,2013-02-27 15:01:00,
2013-02-27 08:12:00,12.0,10.0,-100.00,East,86,2.0,3.0,93,0.00,,,-99.99,,2013-02-27 15:12:00,
2013-02-27 08:22:00,12.0,10.0,-100.00,East,86,2.0,3.0,93,0.00,,,-99.99,,2013-02-27 15:22:00,
2013-02-27 08:31:00,12.0,10.0,-100.00,East,86,2.0,3.0,93,0.00,,,-99.99,,2013-02-27 15:31:00,
2013-02-27 08:41:00,8.0,5.0,-100.00,NW,323,2.0,3.0,89,0.00,,,-99.99,,2013-02-27 15:41:00,
2013-02-27 08:52:00,9.0,8.0,-100.00,ESE,102,1.0,2.0,92,0.00,,,-99.99,,2013-02-27 15:52:00,
2013-02-27 09:01:00,9.0,8.0,-100.00,ESE,102,1.0,2.0,92,0.00,,,-99.99,,2013-02-27 16:01:00,
2013-02-27 09:11:00,13.0,11.0,-100.00,SSW,193,0.0,1.0,92,0.00,,,-99.99,,2013-02-27 16:11:00,
2013-02-27 09:21:00,14.0,11.0,-100.00,NNW,344,2.0,3.0,90,0.00,,,-99.99,,2013-02-27 16:21:00,
2013-02-27 09:31:00,14.0,11.0,-100.00,NNW,344,2.0,3.0,90,0.00,,,-99.99,,2013-02-27 16:31:00,
2013-02-27 09:42:00,17.0,15.0,-100.00,SSE,160,0.0,0.0,89,0.00,,,-99.99,,2013-02-27 16:42:00,
2013-02-27 09:52:00,17.0,15.0,-100.00,SSE,160,0.0,0.0,89,0.00,,,-99.99,,2013-02-27 16:52:00,
2013-02-27 10:01:00,17.0,15.0,-100.00,SSE,160,0.0,0.0,89,0.00,,,-99.99,,2013-02-27 17:01:00,
2013-02-27 10:11:00,17.0,13.0,-100.00,NNW,337,1.0,2.0,84,0.00,,,-99.99,,2013-02-27 17:11:00,
2013-02-27 10:21:00,19.0,15.0,-100.00,WSW,257,1.0,2.0,84,0.00,,,-99.99,,2013-02-27 17:21:00,
2013-02-27 10:32:00,19.0,15.0,-100.00,WSW,257,1.0,2.0,84,0.00,,,-99.99,,2013-02-27 17:32:00,
2013-02-27 10:41:00,19.0,15.0,-100.00,WSW,257,1.0,2.0,84,0.00,,,-99.99,,2013-02-27 17:41:00,
2013-02-27 10:52:00,21.0,15.0,-100.00,NNW,336,2.0,3.0,79,0.00,,,-99.99,,2013-02-27 17:52:00,
2013-02-27 11:01:00,21.0,15.0,-100.00,NNW,336,2.0,3.0,79,0.00,,,-99.99,,2013-02-27 18:01:00,
2013-02-27 11:11:00,20.0,14.0,-100.00,WNW,301,1.0,3.0,77,0.00,,,-99.99,,2013-02-27 18:11:00,
2013-02-27 11:22:00,22.0,15.0,-100.00,NW,320,3.0,4.0,75,0.00,,,-99.99,,2013-02-27 18:22:00,
2013-02-27 11:31:00,22.0,15.0,-100.00,NW,320,3.0,4.0,75,0.00,,,-99.99,,2013-02-27 18:31:00,
2013-02-27 11:42:00,27.0,17.0,-100.00,ESE,106,5.0,8.0,66,0.00,,,-99.99,,2013-02-27 18:42:00,
2013-02-27 11:52:00,29.0,17.0,-100.00,ESE,119,4.0,7.0,59,0.00,,,-99.99,,2013-02-27 18:52:00,
2013-02-27 12:01:00,29.0,17.0,-100.00,ESE,119,4.0,7.0,59,0.00,,,-99.99,,2013-02-27 19:01:00,
2013-02-27 12:11:00,27.0,15.0,-100.00,SSW,193,2.0,4.0,58,0.00,,,-99.99,,2013-02-27 19:11:00,
2013-02-27 12:21:00,30.0,17.0,-100.00,ESE,113,4.0,6.0,55,0.00,,,-99.99,,2013-02-27 19:21:00,
2013-02-27 12:32:00,30.0,17.0,-100.00,ESE,113,4.0,6.0,55,0.00,,,-99.99,,2013-02-27 19:32:00,
2013-02-27 12:41:00,31.0,17.0,-100.00,ESE,117,5.0,9.0,54,0.00,,,-99.99,,2013-02-27 19:41:00,
2013-02-27 12:52:00,31.0,17.0,-100.00,SE,127,3.0,6.0,55,0.00,,,-99.99,,2013-02-27 19:52:00,
2013-02-27 13:01:00,31.0,17.0,-100.00,SE,127,3.0,6.0,55,0.00,,,-99.99,,2013-02-27 20:01:00,
2013-02-27 13:11:00,33.0,16.0,-100.00,ESE,117,5.0,9.0,48,0.00,,,-99.99,,2013-02-27 20:11:00,
2013-02-27 13:21:00,33.0,16.0,-100.00,SSE,151,4.0,6.0,49,0.00,,,-99.99,,2013-02-27 20:21:00,
2013-02-27 13:31:00,33.0,16.0,-100.00,SSE,151,4.0,6.0,49,0.00,,,-99.99,,2013-02-27 20:31:00,
2013-02-27 13:41:00,33.0,16.0,-100.00,SW,224,2.0,4.0,50,0.00,,,-99.99,,2013-02-27 20:41:00,
2013-02-27 13:52:00,33.0,16.0,-100.00,SW,224,2.0,4.0,50,0.00,,,-99.99,,2013-02-27 20:52:00,
2013-02-27 14:01:00,33.0,16.0,-100.00,SW,224,2.0,4.0,50,0.00,,,-99.99,,2013-02-27 21:01:00,
2013-02-27 14:11:00,33.0,16.0,-100.00,SW,224,2.0,4.0,50,0.00,,,-99.99,,2013-02-27 21:11:00,
2013-02-27 14:42:00,35.0,17.0,-100.00,SE,128,4.0,11.0,45,0.00,,,-99.99,,2013-02-27 21:42:00,
2013-02-27 14:52:00,36.0,16.0,-100.00,SE,138,4.0,6.0,43,0.00,,,-99.99,,2013-02-27 21:52:00,
2013-02-27 15:01:00,36.0,16.0,-100.00,SE,138,4.0,6.0,43,0.00,,,-99.99,,2013-02-27 22:01:00,
2013-02-27 15:11:00,36.0,17.0,-100.00,South,189,2.0,4.0,45,0.00,,,-99.99,,2013-02-27 22:11:00,
2013-02-27 15:21:00,36.0,17.0,-100.00,South,189,2.0,4.0,45,0.00,,,-99.99,,2013-02-27 22:21:00,
2013-02-27 15:31:00,36.0,17.0,-100.00,South,189,2.0,4.0,45,0.00,,,-99.99,,2013-02-27 22:31:00,
2013-02-27 15:41:00,35.0,16.0,-100.00,ESE,104,5.0,8.0,45,0.00,,,-99.99,,2013-02-27 22:41:00,
2013-02-27 15:52:00,35.0,16.0,-100.00,ESE,104,5.0,8.0,45,0.00,,,-99.99,,2013-02-27 22:52:00,
2013-02-27 16:01:00,35.0,16.0,-100.00,ESE,104,5.0,8.0,45,0.00,,,-99.99,,2013-02-27 23:01:00,
2013-02-27 16:11:00,36.0,17.0,-100.00,SSE,168,5.0,8.0,46,0.00,,,-99.99,,2013-02-27 23:11:00,
2013-02-27 16:21:00,35.0,17.0,-100.00,ESE,106,5.0,9.0,46,0.00,,,-99.99,,2013-02-27 23:21:00,
2013-02-27 16:31:00,35.0,17.0,-100.00,ESE,106,5.0,9.0,46,0.00,,,-99.99,,2013-02-27 23:31:00,
2013-02-27 16:42:00,36.0,17.0,-100.00,ESE,110,6.0,8.0,46,0.00,,,-99.99,,2013-02-27 23:42:00,
2013-02-27 16:53:00,35.0,17.0,-100.00,ESE,121,3.0,5.0,46,0.00,,,-99.99,,2013-02-27 23:53:00,
2013-02-27 17:01:00,35.0,17.0,-100.00,ESE,121,3.0,5.0,46,0.00,,,-99.99,,2013-02-28 00:01:00,
2013-02-27 17:11:00,35.0,17.0,-100.00,ESE,119,2.0,5.0,47,0.00,,,-99.99,,2013-02-28 00:11:00,
2013-02-27 17:21:00,35.0,17.0,-100.00,ESE,119,2.0,5.0,47,0.00,,,-99.99,,2013-02-28 00:21:00,
2013-02-27 17:31:00,35.0,17.0,-100.00,ESE,119,2.0,5.0,47,0.00,,,-99.99,,2013-02-28 00:31:00,
2013-02-27 17:42:00,35.0,17.0,-100.00,ESE,102,5.0,8.0,46,0.00,,,-99.99,,2013-02-28 00:42:00,
2013-02-27 17:52:00,34.0,17.0,-100.00,NW,325,2.0,3.0,49,0.00,,,-99.99,,2013-02-28 00:52:00,
2013-02-27 18:01:00,34.0,17.0,-100.00,NW,325,2.0,3.0,49,0.00,,,-99.99,,2013-02-28 01:01:00,
2013-02-27 18:11:00,33.0,18.0,-100.00,NNW,339,1.0,2.0,53,0.00,,,-99.99,,2013-02-28 01:11:00,
2013-02-27 18:21:00,31.0,19.0,-100.00,ENE,64,1.0,3.0,59,0.00,,,-99.99,,2013-02-28 01:21:00,
2013-02-27 18:31:00,31.0,19.0,-100.00,ENE,64,1.0,3.0,59,0.00,,,-99.99,,2013-02-28 01:31:00,
2013-02-27 18:41:00,31.0,19.0,-100.00,North,3,1.0,1.0,62,0.00,,,-99.99,,2013-02-28 01:41:00,
2013-02-27 18:52:00,30.0,19.0,-100.00,NNE,21,0.0,1.0,64,0.00,,,-99.99,,2013-02-28 01:52:00,
2013-02-27 19:01:00,30.0,19.0,-100.00,NNE,21,0.0,1.0,64,0.00,,,-99.99,,2013-02-28 02:01:00,
2013-02-27 19:11:00,29.0,19.0,-100.00,NE,52,1.0,2.0,66,0.00,,,-99.99,,2013-02-28 02:11:00,
2013-02-27 19:22:00,27.0,18.0,-100.00,East,90,1.0,2.0,67,0.00,,,-99.99,,2013-02-28 02:22:00,
2013-02-27 19:31:00,27.0,18.0,-100.00,East,90,1.0,2.0,67,0.00,,,-99.99,,2013-02-28 02:31:00,
2013-02-27 19:41:00,27.0,18.0,-100.00,East,90,1.0,2.0,67,0.00,,,-99.99,,2013-02-28 02:41:00,
2013-02-27 19:52:00,27.0,18.0,-100.00,East,90,1.0,2.0,67,0.00,,,-99.99,,2013-02-28 02:52:00,
2013-02-27 20:01:00,26.0,17.0,-100.00,East,88,1.0,2.0,67,0.00,,,-99.99,,2013-02-28 03:01:00,
2013-02-27 20:11:00,27.0,17.0,-100.00,ESE,109,4.0,5.0,67,0.00,,,-99.99,,2013-02-28 03:11:00,
2013-02-27 20:21:00,27.0,17.0,-100.00,ESE,109,2.0,4.0,67,0.00,,,-99.99,,2013-02-28 03:21:00,
2013-02-27 20:31:00,27.0,17.0,-100.00,ESE,109,2.0,4.0,67,0.00,,,-99.99,,2013-02-28 03:31:00,
2013-02-27 20:41:00,27.0,17.0,-100.00,ESE,109,2.0,4.0,67,0.00,,,-99.99,,2013-02-28 03:41:00,
2013-02-27 20:52:00,26.0,17.0,-100.00,ESE,114,2.0,3.0,69,0.00,,,-99.99,,2013-02-28 03:52:00,
2013-02-27 21:01:00,26.0,17.0,-100.00,ESE,114,2.0,3.0,69,0.00,,,-99.99,,2013-02-28 04:01:00,
2013-02-27 21:11:00,26.0,17.0,-100.00,ENE,69,0.0,1.0,70,0.00,,,-99.99,,2013-02-28 04:11:00,
2013-02-27 21:21:00,26.0,17.0,-100.00,ESE,113,4.0,5.0,69,0.00,,,-99.99,,2013-02-28 04:21:00,
2013-02-27 21:31:00,26.0,17.0,-100.00,ESE,113,4.0,5.0,69,0.00,,,-99.99,,2013-02-28 04:31:00,
2013-02-27 21:41:00,27.0,16.0,-100.00,ESE,119,4.0,5.0,65,0.00,,,-99.99,,2013-02-28 04:41:00,
2013-02-27 21:52:00,26.0,16.0,-100.00,SE,124,1.0,2.0,65,0.00,,,-99.99,,2013-02-28 04:52:00,
2013-02-27 22:01:00,26.0,16.0,-100.00,SE,124,1.0,2.0,65,0.00,,,-99.99,,2013-02-28 05:01:00,
2013-02-27 22:11:00,25.0,16.0,-100.00,ESE,109,2.0,4.0,68,0.00,,,-99.99,,2013-02-28 05:11:00,
2013-02-27 22:22:00,24.0,17.0,-100.00,ESE,104,1.0,2.0,73,0.00,,,-99.99,,2013-02-28 05:22:00,
2013-02-27 22:31:00,24.0,17.0,-100.00,ESE,104,1.0,2.0,73,0.00,,,-99.99,,2013-02-28 05:31:00,
2013-02-27 22:42:00,24.0,16.0,-100.00,East,97,1.0,2.0,72,0.00,,,-99.99,,2013-02-28 05:42:00,
2013-02-27 22:52:00,24.0,17.0,-100.00,North,359,1.0,2.0,74,0.00,,,-99.99,,2013-02-28 05:52:00,
2013-02-27 23:01:00,24.0,17.0,-100.00,North,359,1.0,2.0,74,0.00,,,-99.99,,2013-02-28 06:01:00,
2013-02-27 23:11:00,24.0,17.0,-100.00,North,359,1.0,2.0,74,0.00,,,-99.99,,2013-02-28 06:11:00,
2013-02-27 23:22:00,23.0,16.0,-100.00,East,83,1.0,2.0,74,0.00,,,-99.99,,2013-02-28 06:22:00,
2013-02-27 23:32:00,23.0,16.0,-100.00,East,83,1.0,2.0,74,0.00,,,-99.99,,2013-02-28 06:32:00,
2013-02-27 23:41:00,24.0,16.0,-100.00,ENE,73,1.0,2.0,74,0.00,,,-99.99,,2013-02-28 06:41:00,
2013-02-27 23:52:00,23.0,17.0,-100.00,East,97,1.0,2.0,75,0.00,,,-99.99,,2013-02-28 06:52:00,